�������r�C�����j�^�v���󋵏��
Date,Time,5�C6���@���p�r�C��,����,����(m/s)
2021/08/27,00:00,3.8,��,8.1
2021/08/27,00:10,3.8,��,7.4
2021/08/27,00:20,4.0,���쐼,6.3
2021/08/27,00:30,3.8,���쐼,6.1
2021/08/27,00:40,3.8,���쐼,4.0
2021/08/27,00:50,3.7,���쐼,3.2
2021/08/27,01:00,3.7,���k��,2.0
2021/08/27,01:10,3.9,���k��,2.3
2021/08/27,01:20,3.8,�k��,2.8
2021/08/27,01:30,3.9,�k��,3.3
2021/08/27,01:40,3.8,��,1.2
2021/08/27,01:50,3.8,��쓌,1.7
2021/08/27,02:00,3.9,��쓌,2.9
2021/08/27,02:10,3.7,���쐼,4.1
2021/08/27,02:20,3.8,���쐼,5.5
2021/08/27,02:30,3.7,��쐼,1.5
2021/08/27,02:40,3.9,-,CALM
2021/08/27,02:50,3.9,���쐼,0.6
2021/08/27,03:00,3.5,���k��,1.7
2021/08/27,03:10,3.8,��,3.1
2021/08/27,03:20,3.7,�k��,3.7
2021/08/27,03:30,3.9,�k��,2.6
2021/08/27,03:40,3.8,���k��,2.6
2021/08/27,03:50,3.8,���k��,2.2
2021/08/27,04:00,3.8,���k��,3.4
2021/08/27,04:10,3.9,�k��,1.5
2021/08/27,04:20,3.7,��,2.3
2021/08/27,04:30,4.0,���쐼,0.9
2021/08/27,04:40,3.9,��,2.3
2021/08/27,04:50,3.7,��,3.2
2021/08/27,05:00,4.0,�k��,1.9
2021/08/27,05:10,3.7,���k��,1.2
2021/08/27,05:20,3.9,-,CALM
2021/08/27,05:30,3.8,�k,0.9
2021/08/27,05:40,4.0,�k,2.9
2021/08/27,05:50,3.9,�k�k��,5.5
2021/08/27,06:00,3.6,�k��,5.3
2021/08/27,06:10,3.8,���k��,4.3
2021/08/27,06:20,4.0,�k��,5.8
2021/08/27,06:30,3.9,�k��,5.7
2021/08/27,06:40,4.0,�k��,5.0
2021/08/27,06:50,3.7,�k��,4.6
2021/08/27,07:00,3.8,�k��,3.7
2021/08/27,07:10,3.8,�k��,2.3
2021/08/27,07:20,4.0,�k��,0.8
2021/08/27,07:30,3.8,�k��,0.9
2021/08/27,07:40,3.6,���쐼,1.7
2021/08/27,07:50,4.0,���쐼,2.2
2021/08/27,08:00,3.8,���쐼,1.9
2021/08/27,08:10,4.0,��쐼,1.4
2021/08/27,08:20,4.1,���쐼,2.3
2021/08/27,08:30,3.9,���쐼,3.0
2021/08/27,08:40,3.7,��쓌,0.6
2021/08/27,08:50,3.8,-,CALM
2021/08/27,09:00,3.9,-,CALM
2021/08/27,09:10,3.7,�k��,0.6
2021/08/27,09:20,3.8,�k�k��,2.2
2021/08/27,09:30,3.9,�k�k��,1.7
2021/08/27,09:40,4.0,�k�k��,1.5
2021/08/27,09:50,3.8,�k,1.7
2021/08/27,10:00,3.9,�k�k��,2.0
2021/08/27,10:10,3.8,���k��,1.4
2021/08/27,10:20,3.6,�k�k��,0.9
2021/08/27,10:30,3.8,��,2.5
2021/08/27,10:40,3.9,���쐼,2.0
2021/08/27,10:50,4.0,���k��,1.7
2021/08/27,11:00,3.8,-,CALM
2021/08/27,11:10,3.8,���쓌,1.7
2021/08/27,11:20,3.9,��,1.7
2021/08/27,11:30,3.8,��,1.2
2021/08/27,11:40,3.7,���쓌,2.3
2021/08/27,11:50,3.8,��,2.0
2021/08/27,12:00,4.0,�쓌,2.0
2021/08/27,12:10,3.7,���쓌,2.3
2021/08/27,12:20,3.8,���쓌,2.6
2021/08/27,12:30,3.8,���쓌,3.5
2021/08/27,12:40,3.8,��,2.8
2021/08/27,12:50,3.9,���쓌,2.3
2021/08/27,13:00,3.9,���쓌,3.0
2021/08/27,13:10,3.8,��,3.7
2021/08/27,13:20,3.8,���쓌,3.9
2021/08/27,13:30,3.8,�쓌,3.3
2021/08/27,13:40,3.7,�쓌,3.0
2021/08/27,13:50,3.9,��쓌,3.6
2021/08/27,14:00,3.8,�쓌,2.8
2021/08/27,14:10,3.8,�쓌,3.6
2021/08/27,14:20,3.8,�쓌,2.3
2021/08/27,14:30,3.9,���쓌,2.5
2021/08/27,14:40,3.9,���쓌,2.2
2021/08/27,14:50,3.8,�쓌,3.0
2021/08/27,15:00,3.8,�쓌,2.6
2021/08/27,15:10,3.8,�쓌,3.2
2021/08/27,15:20,3.8,�쓌,3.8
2021/08/27,15:30,3.8,�쓌,2.6
2021/08/27,15:40,3.8,��쓌,2.6
2021/08/27,15:50,3.7,�쓌,3.0
2021/08/27,16:00,3.7,��쓌,3.5
2021/08/27,16:10,3.9,��쓌,3.8
2021/08/27,16:20,3.9,��쓌,4.0
2021/08/27,16:30,3.8,��쓌,4.6
2021/08/27,16:40,3.9,��,4.7
2021/08/27,16:50,3.9,��,4.0
2021/08/27,17:00,3.9,��,4.9
2021/08/27,17:10,3.8,��쓌,3.5
2021/08/27,17:20,3.9,��,3.7
2021/08/27,17:30,3.7,��,3.9
2021/08/27,17:40,3.9,��,5.1
2021/08/27,17:50,3.8,��,5.1
2021/08/27,18:00,3.8,��,5.6
2021/08/27,18:10,3.9,��,6.7
2021/08/27,18:20,3.7,��쓌,5.9
2021/08/27,18:30,3.7,��,6.3
2021/08/27,18:40,3.9,��,6.8
2021/08/27,18:50,3.7,��,6.3
2021/08/27,19:00,3.9,��,7.6
2021/08/27,19:10,3.8,��,7.4
2021/08/27,19:20,3.8,��,4.8
2021/08/27,19:30,3.8,��,4.1
2021/08/27,19:40,3.9,��,5.7
2021/08/27,19:50,3.7,��,5.8
2021/08/27,20:00,3.9,��쐼,4.3
2021/08/27,20:10,4.0,��쐼,4.3
2021/08/27,20:20,3.9,��쐼,3.4
2021/08/27,20:30,3.9,�쐼,2.9
2021/08/27,20:40,3.8,�쐼,2.3
2021/08/27,20:50,3.9,�쐼,1.5
2021/08/27,21:00,3.8,��,1.4
2021/08/27,21:10,4.0,�쐼,1.2
2021/08/27,21:20,3.7,��쐼,1.4
2021/08/27,21:30,3.9,�쐼,0.9
2021/08/27,21:40,3.9,�쐼,1.1
2021/08/27,21:50,3.9,���쐼,2.0
2021/08/27,22:00,3.9,���쐼,2.3
2021/08/27,22:10,3.9,���쐼,1.7
2021/08/27,22:20,3.8,�쐼,1.5
2021/08/27,22:30,3.8,�쐼,1.9
2021/08/27,22:40,3.6,��쐼,2.0
2021/08/27,22:50,3.8,���쐼,2.3
2021/08/27,23:00,3.9,��쐼,1.7
2021/08/27,23:10,3.8,��쐼,1.2
2021/08/27,23:20,3.9,�쐼,1.9
2021/08/27,23:30,4.0,���쐼,2.2
2021/08/27,23:40,3.8,�쐼,1.7
2021/08/27,23:50,3.9,��쐼,2.3
